Powrót do katalogu

ARIANE 44LP+ R/B

AktywnyUNKNOWN
NORAD 22913·ROCKET BODY·🇫🇷 France

Wystrzelony Nov 20, 1993 z Guiana Space Centre

Loading…

Następne Przeloty (najbliższe 24 godziny)

TLE

ŚwieżeSource: Space-Track

Epoka: Sep 14, 2026, 21:25 UTC

1 22913U 93073C   26257.89289369  .00264653 -11750-4  14267-2 0  9992
2 22913   6.7328 208.9916 1213165 211.4229 140.7455 13.35105350725466

Śledź ARIANE 44LP+ R/B w czasie rzeczywistym z AllMySat

Download on the App Store